Content
SEND FEEDBACK

Daily
Averages
Monthly
Summary
United States of America

UMATAC, GUAM


Home > North America > United States > Guam
Elevation: 58 meters     Latitude: 13 17N     Longitude: 144 40E

WEATHER
 
SELECT A DAY
Number of Records: 341,964;   Date Range: 1/1/95 - 7/26/14
 
SHARE

PRINT THIS DATA

[ ← Previous Day ]
WEATHER ALMANAC - 6 APRIL, 2013
[ Next Day → ]
[ °F ]   °C
Weather ElementAverageHighLow
Temperature26.4 °C29 °C (12:16 pm)24 °C (5:55 am)
Dewpoint21.6 °C23 °C (3:13 pm)20 °C (6:16 am)
Humidity74.6 %83 % (4:24 am)66 % (10:55 am)
Barometer1009.5 hPa1011.2 hPa (8:55 am)1007.1 hPa (4:21 pm)
Wind Speed18 km/h24.1 km/h (10:55 am)
Wind Gust33.3 km/h (12:27 pm)
Weather ElementAverage
Visibility15.8 km
Wind DirectionENE (81 °)

Weather ElementTotal
Precipitation---
Cooling Degree Days8.2 (Base 18.3)
Growing Degree Days16.5 (Base 10)
Averaged from 50 records on 6 April, 2013
WEATHER CONDITIONS BREAKOUT
WIND DIRECTION BREAKOUT
WEATHER BY HOUR - 6 APRIL, 2013
[ °F ]   °C
Local TimeTemperatureDewpointHumidityBarometerVisibilityWind DirectionWind SpeedGust SpeedPrecipitationEventsConditions
12:39 AM25 °C21 °C78 %1010.5 hPa16.1 kmENE (70°)18.5 km/hScattered Clouds
12:55 AM24.7 °C20.7 °C78 %1010.2 hPa16.1 kmEast (80°)18.5 km/hPartly Cloudy
1:19 AM25 °C21 °C78 %1010.2 hPa16.1 kmEast (80°)20.4 km/hMostly Cloudy
1:27 AM25 °C21 °C78 %1010.2 hPa16.1 kmENE (60°)18.5 km/hScattered Clouds
1:55 AM24.7 °C20.9 °C79 %1010.2 hPa16.1 kmEast (80°)18.5 km/hClear
2:55 AM24.6 °C20.8 °C79 %1009.5 hPa16.1 kmEast (80°)16.7 km/hClear
3:55 AM24.3 °C20.8 °C81 %1009.1 hPa16.1 kmENE (60°)18.5 km/hPartly Cloudy
4:24 AM25 °C22 °C83 %1009.5 hPa16.1 kmNE (50°)16.7 km/hMostly Cloudy
4:35 AM25 °C21 °C78 %1009.5 hPa16.1 kmENE (60°)18.5 km/hScattered Clouds
4:55 AM24.2 °C20.9 °C82 %1009.1 hPa16.1 kmENE (60°)18.5 km/hPartly Cloudy
5:55 AM24 °C20.8 °C82 %1009.5 hPa16.1 kmENE (70°)14.8 km/hPartly Cloudy
6:16 AM24 °C20 °C78 %1009.8 hPa16.1 kmENE (60°)20.4 km/hRainLight Rain
6:26 AM24 °C21 °C83 %1009.8 hPa16.1 kmENE (70°)16.7 km/hClear
6:55 AM24.7 °C20.9 °C79 %1010.2 hPa16.1 kmENE (60°)18.5 km/h0 mmClear
7:55 AM26.2 °C21.3 °C74 %1010.8 hPa16.1 kmENE (70°)22.2 km/hPartly Cloudy
8:55 AM27.4 °C21.6 °C70 %1011.2 hPa16.1 kmEast (80°)22.2 km/hPartly Cloudy
9:55 AM28.1 °C21.8 °C68 %1010.5 hPa16.1 kmENE (70°)22.2 km/hPartly Cloudy
10:55 AM28.7 °C21.8 °C66 %1010.2 hPa16.1 kmEast (80°)24.1 km/hPartly Cloudy
11:55 AM28.5 °C21.9 °C67 %1009.5 hPa16.1 kmENE (70°)22.2 km/hScattered Clouds
12:16 PM29 °C22 °C66 %1009.5 hPa16.1 kmEast (80°)22.2 km/hMostly Cloudy
12:22 PM29 °C22 °C66 %1009.1 hPa16.1 kmENE (70°)22.2 km/hScattered Clouds
12:23 PM29 °C22 °C66 %1009.1 hPa16.1 kmENE (70°)20.4 km/hMostly Cloudy
12:27 PM29 °C22 °C66 %1009.1 hPa16.1 kmEast (100°)24.1 km/h33.3 km/hMostly Cloudy
12:36 PM29 °C22 °C66 %1009.1 hPa16.1 kmEast (90°)20.4 km/h33.3 km/hMostly Cloudy
12:45 PM29 °C22 °C66 %1009.1 hPa16.1 kmEast (90°)20.4 km/hMostly Cloudy
12:55 PM28.6 °C22.4 °C69 %1008.8 hPa16.1 kmENE (70°)20.4 km/hMostly Cloudy
1:55 PM28.7 °C22.3 °C68 %1007.8 hPa16.1 kmEast (100°)20.4 km/hScattered Clouds
2:54 PM28 °C22 °C70 %1007.5 hPa16.1 kmEast (80°)20.4 km/hMostly Cloudy
2:55 PM28.4 °C22.2 °C69 %1007.5 hPa16.1 kmEast (90°)20.4 km/hMostly Cloudy
3:13 PM29 °C23 °C70 %1007.5 hPa16.1 kmEast (80°)22.2 km/hScattered Clouds
3:55 PM28.4 °C22.1 °C68 %1007.5 hPa16.1 kmESE (110°)18.5 km/hMostly Cloudy
4:21 PM27 °C22 °C74 %1007.1 hPa16.1 kmEast (90°)20.4 km/hScattered Clouds
4:55 PM27.3 °C21.8 °C72 %1007.5 hPa16.1 kmEast (80°)13 km/hPartly Cloudy
5:50 PM27 °C22 °C74 %1008.1 hPa16.1 kmEast (90°)13 km/hMostly Cloudy
5:55 PM26.7 °C22.5 °C78 %1008.1 hPa16.1 kmEast (80°)14.8 km/hMostly Cloudy
5:58 PM27 °C22 °C74 %1008.1 hPa16.1 kmENE (70°)16.7 km/hScattered Clouds
5:59 PM27 °C22 °C74 %1008.1 hPa16.1 kmENE (70°)16.7 km/hMostly Cloudy
6:19 PM26 °C22 °C78 %1008.5 hPa16.1 kmEast (80°)18.5 km/hMostly Cloudy
6:55 PM25.5 °C21.2 °C77 %1008.8 hPa16.1 kmENE (70°)14.8 km/hPartly Cloudy
7:55 PM25.3 °C21.5 °C79 %1009.5 hPa16.1 kmEast (90°)11.1 km/hPartly Cloudy
8:55 PM25.5 °C21.7 °C79 %1009.8 hPa16.1 kmEast (100°)14.8 km/hPartly Cloudy
9:47 PM26 °C22 °C78 %1010.2 hPa16.1 kmEast (90°)14.8 km/hMostly Cloudy
9:49 PM26 °C22 °C78 %1010.2 hPa16.1 kmEast (90°)16.7 km/hMostly Cloudy
9:51 PM26 °C22 °C78 %1010.2 hPa16.1 kmEast (100°)13 km/hMostly Cloudy
9:54 PM26 °C21 °C74 %1010.2 hPa16.1 kmEast (100°)16.7 km/hMostly Cloudy
9:55 PM25.5 °C21.3 °C77 %1010.2 hPa16.1 kmESE (110°)14.8 km/hMostly Cloudy
10:05 PM26 °C21 °C74 %1010.5 hPa16.1 kmESE (110°)14.8 km/hMostly Cloudy
10:55 PM25.3 °C21.2 °C78 %1010.5 hPa16.1 kmEast (90°)13 km/hPartly Cloudy
11:33 PM25 °C22 °C83 %1010.2 hPa10 kmEast (100°)13 km/hScattered Clouds
11:55 PM25 °C21 °C78 %1010.2 hPa10 kmEast (100°)11.1 km/hScattered Clouds
Hourly data recorded from PGUA, located 0 kilometers away from Umatac, Guam







STORIES FROM OUR PARTNERS